Content
SEND FEEDBACK

Daily
Averages
Monthly
Summary
United Kingdom

BEVERLEY, ENGLAND


Home > Europe > United Kingdom > England
Elevation: 29 feet     Latitude: 53 52N     Longitude: 000 25W

WEATHER
 
SELECT A DAY
Number of Records: 53,387;   Date Range: 6/19/04 - 4/15/14
 
SHARE

PRINT THIS DATA

[ ← Previous Day ]
WEATHER ALMANAC - DECEMBER 17, 2013
[ Next Day → ]
[ °C ]   °F
Weather ElementAverageHighLow
Temperature41.4 °F46.4 °F (1:20 pm)37.4 °F (7:50 am)
Dewpoint38.3 °F41 °F (12:50 am)33.8 °F (8:50 am)
Humidity88.9 %100 % (5:50 pm)76 % (1:50 pm)
Barometer30.13 in30.24 in (9:20 am)29.98 in (11:50 pm)
Wind Speed8.5 mph11.5 mph (6:20 pm)
Weather ElementAverage
Visibility6.2 mi
Wind DirectionS (182.1 °)

Weather ElementTotal
Precipitation---
Heating Degree Days23.1 (Base 65)
Averaged from 47 records on December 17, 2013
WEATHER CONDITIONS BREAKOUT
WIND DIRECTION BREAKOUT
WEATHER BY HOUR - DECEMBER 17, 2013
[ °C ]   °F
Local TimeTemperatureDewpointHumidityBarometerVisibilityWind DirectionWind SpeedGust SpeedPrecipitationEventsConditions
12:50 AM44.6 °F41.0 °F87 %30.09 in6.2 miSSW (210°)9.2 mph
1:20 AM42.8 °F41.0 °F93 %30.09 in6.2 miSSW (200°)10.4 mph
1:50 AM42.8 °F41.0 °F93 %30.09 in6.2 miSSW (200°)10.4 mph
2:20 AM42.8 °F41.0 °F93 %30.12 in6.2 miSSW (200°)9.2 mph
2:50 AM42.8 °F41.0 °F93 %30.12 in6.2 miSSW (200°)9.2 mph
3:20 AM44.6 °F39.2 °F81 %30.12 in6.2 miSSW (210°)10.4 mph
3:50 AM42.8 °F39.2 °F87 %30.12 in6.2 miSSW (200°)8.1 mph
4:20 AM42.8 °F39.2 °F87 %30.12 in6.2 miSouth (190°)9.2 mph
4:50 AM42.8 °F39.2 °F87 %30.12 in6.2 miSSW (200°)10.4 mph
5:20 AM41.0 °F39.2 °F93 %30.12 in6.2 miSSW (200°)10.4 mph
5:50 AM41.0 °F39.2 °F93 %30.12 in6.2 miSSW (210°)10.4 mphPartly Cloudy
6:20 AM41.0 °F37.4 °F87 %30.15 in6.2 miVariable4.6 mphPartly Cloudy
6:50 AM39.2 °F37.4 °F93 %30.15 in6.2 miSSW (210°)5.8 mphPartly Cloudy
7:20 AM39.2 °F35.6 °F87 %30.18 in6.2 miSSW (200°)9.2 mphPartly Cloudy
7:50 AM37.4 °F35.6 °F93 %30.18 inSSW (210°)9.2 mphClear
8:20 AM37.4 °F35.6 °F93 %30.21 inSSW (210°)4.6 mphClear
8:50 AM37.4 °F33.8 °F87 %30.21 inSW (220°)5.8 mphClear
9:20 AM37.4 °F35.6 °F93 %30.24 in6.2 miSW (230°)5.8 mphPartly Cloudy
9:50 AM39.2 °F35.6 °F87 %30.24 in6.2 miSSW (200°)9.2 mphPartly Cloudy
10:20 AM39.2 °F37.4 °F93 %30.24 inSouth (190°)10.4 mphClear
10:50 AM41.0 °F37.4 °F87 %30.21 inSSW (200°)9.2 mphClear
11:20 AM42.8 °F39.2 °F87 %30.21 inSSW (200°)9.2 mphClear
11:50 AM44.6 °F39.2 °F81 %30.21 inSSW (200°)10.4 mphClear
12:20 PM44.6 °F39.2 °F81 %30.18 inSSW (200°)8.1 mphClear
12:50 PM44.6 °F39.2 °F81 %30.18 inSSW (210°)10.4 mphClear
1:20 PM46.4 °F41.0 °F81 %30.18 inSSW (200°)9.2 mphClear
1:50 PM46.4 °F39.2 °F76 %30.18 inSSW (210°)9.2 mphClear
2:20 PM46.4 °F39.2 °F76 %30.15 inSouth (180°)8.1 mphClear
2:50 PM44.6 °F39.2 °F81 %30.15 inSouth (170°)5.8 mphClear
3:20 PM42.8 °F39.2 °F87 %30.15 inSouth (170°)6.9 mphClear
3:50 PM41.0 °F37.4 °F87 %30.15 in6.2 miSSE (160°)5.8 mphPartly Cloudy
4:20 PM41.0 °F37.4 °F87 %30.15 in6.2 miSouth (170°)5.8 mphPartly Cloudy
4:50 PM39.2 °F35.6 °F87 %30.15 in6.2 miSouth (170°)8.1 mphPartly Cloudy
5:20 PM37.4 °F35.6 °F93 %30.15 in6.2 miSSE (160°)9.2 mphPartly Cloudy
5:50 PM37.4 °F37.4 °F100 %30.12 in6.2 miSouth (180°)9.2 mphPartly Cloudy
6:20 PM39.2 °F37.4 °F93 %30.12 in6.2 miSouth (170°)11.5 mphPartly Cloudy
6:50 PM39.2 °F37.4 °F93 %30.12 in6.2 miSouth (170°)10.4 mphPartly Cloudy
7:20 PM39.2 °F37.4 °F93 %30.12 in6.2 miSouth (170°)11.5 mphPartly Cloudy
7:50 PM41.0 °F37.4 °F87 %30.12 in6.2 miSouth (170°)11.5 mphPartly Cloudy
8:20 PM41.0 °F37.4 °F87 %30.09 in6.2 miSouth (170°)9.2 mphScattered Clouds
8:50 PM41.0 °F39.2 °F93 %30.06 in6.2 miSouth (170°)9.2 mphMostly Cloudy
9:20 PM39.2 °F37.4 °F93 %30.06 in6.2 miSSE (160°)4.6 mphPartly Cloudy
9:50 PM39.2 °F37.4 °F93 %30.04 in6.2 miSE (140°)6.9 mphMostly Cloudy
10:20 PM41.0 °F39.2 °F93 %30.04 in6.2 miSSE (150°)5.8 mphMostly Cloudy
10:50 PM41.0 °F39.2 °F93 %30.01 in6.2 miSE (130°)6.9 mphOvercast
11:20 PM42.8 °F41.0 °F93 %30.01 in6.2 miSSE (150°)5.8 mphMostly Cloudy
11:50 PM42.8 °F41.0 °F93 %29.98 in6.2 miSE (140°)10.4 mphMostly Cloudy
Hourly data recorded from EGNJ, located 19.76 miles away from Beverley, England







STORIES FROM OUR PARTNERS